| time (UTC) | temp F | wind direction | speed MPH | gust MPH | rain 1hr in | rain 24hr in | rain mn in | humidity % | barometer mb |
| 20260504160245 | 71 | 200 | 8.0 | 10.0 | 0.00 | 0.00 | 0.00 | 37 | 1012.9 |
| 20260504150710 | 68 | 185 | 7.0 | 9.0 | 0.00 | 0.00 | 0.00 | 39 | 1013.5 |
| 20260504150207 | 69 | 174 | 6.0 | 7.0 | 0.00 | 0.00 | 0.00 | 41 | 1013.5 |
| 20260504141136 | 63 | 179 | 1.0 | 7.0 | 0.00 | 0.00 | 0.00 | 50 | 1013.7 |
| 20260504140633 | 63 | 206 | 3.0 | 8.0 | 0.00 | 0.00 | 0.00 | 49 | 1013.9 |
| 20260504140129 | 63 | 169 | 3.0 | 10.0 | 0.00 | 0.00 | 0.00 | 49 | 1013.6 |
| 20260504130557 | 57 | 185 | 3.0 | 6.0 | 0.00 | 0.00 | 0.00 | 57 | 1014.5 |
| 20260504110445 | 45 | 222 | 0.0 | 0.0 | 0.00 | 0.00 | 0.00 | 89 | 1014.7 |
| 20260504100407 | 45 | 249 | 0.0 | 0.0 | 0.00 | 0.00 | 0.00 | 91 | 1014.7 |
| 20260504081800 | 46 | 250 | 0.0 | 0.0 | 0.00 | 0.00 | 0.00 | 86 | 1015.2 |
| 20260504081256 | 46 | 252 | 0.0 | 0.0 | 0.00 | 0.00 | 0.00 | 85 | 1015.0 |
| 20260504080753 | 46 | 252 | 0.0 | 0.0 | 0.00 | 0.00 | 0.00 | 83 | 1015.0 |
| 20260504080249 | 46 | 252 | 0.0 | 0.0 | 0.00 | 0.00 | 0.00 | 83 | 1015.1 |
| 20260504070217 | 46 | 273 | 1.0 | 1.0 | 0.00 | 0.00 | 0.00 | 81 | 1015.0 |
| 20260504060138 | 46 | 228 | 0.0 | 0.0 | 0.00 | 0.00 | 0.00 | 85 | 1015.4 |
| 20260504050606 | 45 | 221 | 0.0 | 0.0 | 0.00 | 0.00 | 0.00 | 86 | 1015.3 |
| 20260504050103 | 45 | 221 | 0.0 | 0.0 | 0.00 | 0.00 | 0.00 | 86 | 1015.3 |
| 20260504045600 | 45 | 221 | 0.0 | 0.0 | 0.00 | 0.00 | 0.00 | 86 | 1015.3 |
| 20260504045055 | 45 | 221 | 0.0 | 0.0 | 0.00 | 0.00 | 0.00 | 87 | 1015.6 |
| 20260504044553 | 45 | 221 | 0.0 | 0.0 | 0.00 | 0.00 | 0.00 | 87 | 1015.3 |
| 20260504044049 | 45 | 221 | 0.0 | 0.0 | 0.00 | 0.00 | 0.00 | 87 | 1015.5 |
| 20260504043547 | 45 | 221 | 0.0 | 0.0 | 0.00 | 0.00 | 0.00 | 86 | 1015.3 |
| 20260504043044 | 45 | 221 | 0.0 | 0.0 | 0.00 | 0.00 | 0.00 | 85 | 1015.2 |
| 20260504042541 | 45 | 221 | 0.0 | 0.0 | 0.00 | 0.00 | 0.00 | 85 | 1015.2 |
| 20260504042038 | 45 | 221 | 0.0 | 0.0 | 0.00 | 0.00 | 0.00 | 86 | 1015.0 |
| 20260504041533 | 45 | 221 | 0.0 | 0.0 | 0.00 | 0.00 | 0.00 | 86 | 1015.0 |
| 20260504041030 | 45 | 221 | 0.0 | 0.0 | 0.00 | 0.00 | 0.00 | 85 | 1015.3 |
| 20260504040527 | 45 | 221 | 0.0 | 0.0 | 0.00 | 0.00 | 0.00 | 85 | 1015.1 |
| 20260504040024 | 44 | 221 | 0.0 | 0.0 | 0.00 | 0.00 | 0.00 | 85 | 1014.9 |
| 20260504035521 | 44 | 221 | 0.0 | 0.0 | 0.00 | 0.00 | 0.00 | 85 | 1015.0 |
| 20260504035017 | 44 | 221 | 0.0 | 0.0 | 0.00 | 0.00 | 0.00 | 85 | 1015.1 |
| 20260504034515 | 44 | 221 | 0.0 | 0.0 | 0.00 | 0.00 | 0.00 | 85 | 1015.1 |
| 20260504034012 | 44 | 221 | 0.0 | 0.0 | 0.00 | 0.00 | 0.00 | 86 | 1015.2 |
| 20260504033510 | 44 | 221 | 0.0 | 0.0 | 0.00 | 0.00 | 0.00 | 86 | 1015.1 |
| 20260504033007 | 44 | 221 | 0.0 | 0.0 | 0.00 | 0.00 | 0.00 | 87 | 1015.1 |
| 20260504032503 | 44 | 221 | 0.0 | 0.0 | 0.00 | 0.00 | 0.00 | 87 | 1015.0 |
| 20260504032000 | 43 | 221 | 0.0 | 0.0 | 0.00 | 0.00 | 0.00 | 87 | 1015.2 |
| 20260504031457 | 43 | 221 | 0.0 | 0.0 | 0.00 | 0.00 | 0.00 | 87 | 1014.9 |
| 20260504030954 | 43 | 221 | 0.0 | 0.0 | 0.00 | 0.00 | 0.00 | 87 | 1015.1 |
| 20260504030451 | 43 | 221 | 0.0 | 0.0 | 0.00 | 0.00 | 0.00 | 87 | 1015.2 |
| 20260504025946 | 42 | 221 | 0.0 | 0.0 | 0.00 | 0.00 | 0.00 | 86 | 1015.1 |
| 20260504025444 | 43 | 221 | 0.0 | 0.0 | 0.00 | 0.00 | 0.00 | 86 | 1015.1 |
| 20260504024941 | 43 | 221 | 0.0 | 0.0 | 0.00 | 0.00 | 0.00 | 86 | 1014.9 |
| 20260504024438 | 43 | 221 | 0.0 | 0.0 | 0.00 | 0.00 | 0.00 | 85 | 1015.0 |
| 20260504023935 | 43 | 221 | 0.0 | 0.0 | 0.00 | 0.00 | 0.00 | 84 | 1015.1 |
| 20260504023431 | 43 | 221 | 0.0 | 0.0 | 0.00 | 0.00 | 0.00 | 84 | 1015.1 |
| 20260504022927 | 44 | 221 | 0.0 | 0.0 | 0.00 | 0.00 | 0.00 | 84 | 1015.0 |
| 20260504022423 | 44 | 221 | 0.0 | 0.0 | 0.00 | 0.00 | 0.00 | 84 | 1015.2 |
| 20260504021920 | 44 | 221 | 0.0 | 0.0 | 0.00 | 0.00 | 0.00 | 83 | 1015.1 |
| 20260504021417 | 45 | 221 | 0.0 | 0.0 | 0.00 | 0.00 | 0.00 | 82 | 1015.0 |
| 20260504020915 | 45 | 221 | 0.0 | 0.0 | 0.00 | 0.00 | 0.00 | 81 | 1015.0 |
| 20260504020411 | 45 | 221 | 0.0 | 0.0 | 0.00 | 0.00 | 0.00 | 81 | 1014.8 |
| 20260504015908 | 45 | 221 | 0.0 | 0.0 | 0.00 | 0.00 | 0.00 | 79 | 1014.9 |
| 20260504015404 | 46 | 221 | 0.0 | 0.0 | 0.00 | 0.00 | 0.00 | 78 | 1014.9 |
| 20260504014900 | 46 | 221 | 0.0 | 0.0 | 0.00 | 0.00 | 0.00 | 76 | 1014.6 |
| 20260504014356 | 46 | 221 | 0.0 | 0.0 | 0.00 | 0.00 | 0.00 | 76 | 1014.7 |
| 20260504013853 | 46 | 221 | 0.0 | 0.0 | 0.00 | 0.00 | 0.00 | 74 | 1014.5 |
| 20260504013351 | 47 | 221 | 0.0 | 0.0 | 0.00 | 0.00 | 0.00 | 73 | 1014.6 |
| 20260504012847 | 47 | 221 | 0.0 | 0.0 | 0.00 | 0.00 | 0.00 | 72 | 1014.6 |
| 20260504012345 | 47 | 220 | 0.0 | 0.0 | 0.00 | 0.00 | 0.00 | 72 | 1014.5 |
| 20260504011843 | 48 | 215 | 0.0 | 0.0 | 0.00 | 0.00 | 0.00 | 70 | 1014.5 |
| 20260504011339 | 48 | 302 | 0.0 | 0.0 | 0.00 | 0.00 | 0.00 | 66 | 1014.3 |
| 20260504010835 | 49 | 302 | 0.0 | 0.0 | 0.00 | 0.00 | 0.00 | 65 | 1014.4 |
| 20260504010331 | 49 | 303 | 0.0 | 0.0 | 0.00 | 0.00 | 0.00 | 63 | 1014.4 |
| 20260504005828 | 49 | 302 | 0.0 | 0.0 | 0.00 | 0.00 | 0.00 | 63 | 1014.2 |
| 20260504005324 | 49 | 275 | 0.0 | 0.0 | 0.00 | 0.00 | 0.00 | 61 | 1014.4 |
| 20260504004822 | 50 | 297 | 0.0 | 0.0 | 0.00 | 0.00 | 0.00 | 60 | 1014.1 |
| 20260504004320 | 50 | 297 | 0.0 | 0.0 | 0.00 | 0.00 | 0.00 | 59 | 1014.3 |
| 20260504003816 | 51 | 297 | 0.0 | 0.0 | 0.00 | 0.00 | 0.00 | 57 | 1014.2 |
| 20260504003313 | 51 | 305 | 0.0 | 0.0 | 0.00 | 0.00 | 0.00 | 55 | 1014.2 |
| 20260504002809 | 52 | 307 | 0.0 | 0.0 | 0.00 | 0.00 | 0.00 | 54 | 1014.0 |
| 20260504002306 | 52 | 308 | 0.0 | 0.0 | 0.00 | 0.00 | 0.00 | 53 | 1014.0 |
| 20260504001804 | 53 | 307 | 0.0 | 0.0 | 0.00 | 0.00 | 0.00 | 50 | 1014.0 |
| 20260504001301 | 54 | 307 | 0.0 | 0.0 | 0.00 | 0.00 | 0.00 | 49 | 1014.1 |
| 20260504000758 | 55 | 307 | 0.0 | 0.0 | 0.00 | 0.00 | 0.00 | 48 | 1014.0 |
| 20260504000254 | 56 | 307 | 0.0 | 1.0 | 0.00 | 0.00 | 0.00 | 45 | 1014.0 |
| 20260503235753 | 56 | 309 | 0.0 | 0.0 | 0.00 | 0.00 | 0.00 | 42 | 1013.9 |
| 20260503235250 | 57 | 309 | 0.0 | 0.0 | 0.00 | 0.00 | 0.00 | 39 | 1013.8 |
| 20260503234747 | 58 | 310 | 0.0 | 0.0 | 0.00 | 0.00 | 0.00 | 38 | 1014.0 |
| 20260503234245 | 58 | 302 | 0.0 | 0.0 | 0.00 | 0.00 | 0.00 | 37 | 1013.8 |
| 20260503233742 | 59 | 300 | 0.0 | 0.0 | 0.00 | 0.00 | 0.00 | 36 | 1013.9 |
| 20260503233238 | 60 | 298 | 0.0 | 0.0 | 0.00 | 0.00 | 0.00 | 37 | 1013.7 |
| 20260503232735 | 60 | 298 | 0.0 | 0.0 | 0.00 | 0.00 | 0.00 | 33 | 1013.7 |
| 20260503232232 | 61 | 299 | 0.0 | 0.0 | 0.00 | 0.00 | 0.00 | 33 | 1014.0 |
| 20260503231730 | 62 | 297 | 0.0 | 0.0 | 0.00 | 0.00 | 0.00 | 32 | 1013.8 |
| 20260503231227 | 62 | 301 | 0.0 | 1.0 | 0.00 | 0.00 | 0.00 | 30 | 1013.8 |
| 20260503230723 | 63 | 250 | 0.0 | 0.0 | 0.00 | 0.00 | 0.00 | 30 | 1013.6 |
| 20260503230220 | 64 | 325 | 0.0 | 1.0 | 0.00 | 0.00 | 0.00 | 29 | 1013.7 |
| 20260503225718 | 64 | 277 | 0.0 | 1.0 | 0.00 | 0.00 | 0.00 | 27 | 1013.7 |
| 20260503225218 | 64 | 339 | 0.0 | 2.0 | 0.00 | 0.00 | 0.00 | 28 | 1013.6 |
| 20260503224715 | 64 | 354 | 1.0 | 2.0 | 0.00 | 0.00 | 0.00 | 26 | 1013.5 |
| 20260503224213 | 65 | 258 | 0.0 | 1.0 | 0.00 | 0.00 | 0.00 | 26 | 1013.6 |
| 20260503223710 | 65 | 238 | 0.0 | 2.0 | 0.00 | 0.00 | 0.00 | 26 | 1013.7 |
| 20260503223207 | 64 | 346 | 1.0 | 5.0 | 0.00 | 0.00 | 0.00 | 26 | 1013.9 |
| 20260503222704 | 64 | 354 | 2.0 | 3.0 | 0.00 | 0.00 | 0.00 | 26 | 1013.8 |
| 20260503222202 | 64 | 327 | 0.0 | 1.0 | 0.00 | 0.00 | 0.00 | 27 | 1013.8 |
| 20260503221700 | 64 | 341 | 0.0 | 2.0 | 0.00 | 0.00 | 0.00 | 27 | 1013.7 |
| 20260503221157 | 64 | 73 | 2.0 | 6.0 | 0.00 | 0.00 | 0.00 | 28 | 1013.9 |
| 20260503220654 | 63 | 274 | 0.0 | 0.0 | 0.00 | 0.00 | 0.00 | 27 | 1013.7 |
| 20260503220150 | 64 | 339 | 2.0 | 2.0 | 0.00 | 0.00 | 0.00 | 27 | 1013.8 |
| 20260503215647 | 63 | 329 | 0.0 | 2.0 | 0.00 | 0.00 | 0.00 | 29 | 1013.9 |
| 20260503215144 | 64 | 2 | 4.0 | 7.0 | 0.00 | 0.00 | 0.00 | 26 | 1013.9 |
| 20260503214643 | 63 | 31 | 4.0 | 5.0 | 0.00 | 0.00 | 0.00 | 27 | 1014.1 |
| 20260503214138 | 64 | 295 | 1.0 | 1.0 | 0.00 | 0.00 | 0.00 | 29 | 1013.7 |
| 20260503213632 | 64 | 11 | 5.0 | 6.0 | 0.00 | 0.00 | 0.00 | 28 | 1013.7 |
| 20260503213128 | 64 | 6 | 2.0 | 2.0 | 0.00 | 0.00 | 0.00 | 27 | 1014.0 |
| 20260503212626 | 64 | 341 | 3.0 | 5.0 | 0.00 | 0.00 | 0.00 | 29 | 1014.0 |
| 20260503212123 | 64 | 338 | 0.0 | 3.0 | 0.00 | 0.00 | 0.00 | 28 | 1013.9 |
| 20260503211620 | 63 | 328 | 1.0 | 3.0 | 0.00 | 0.00 | 0.00 | 28 | 1013.8 |
| 20260503211116 | 64 | 254 | 1.0 | 5.0 | 0.00 | 0.00 | 0.00 | 29 | 1014.0 |
| 20260503210613 | 64 | 329 | 1.0 | 2.0 | 0.00 | 0.00 | 0.00 | 30 | 1014.2 |
| 20260503210109 | 65 | 198 | 3.0 | 6.0 | 0.00 | 0.00 | 0.00 | 28 | 1014.0 |
| 20260503205605 | 64 | 40 | 2.0 | 2.0 | 0.00 | 0.00 | 0.00 | 27 | 1014.2 |
| 20260503205101 | 65 | 264 | 3.0 | 6.0 | 0.00 | 0.00 | 0.00 | 28 | 1014.2 |
| 20260503204558 | 65 | 343 | 1.0 | 6.0 | 0.00 | 0.00 | 0.00 | 29 | 1014.3 |
| 20260503204056 | 65 | 306 | 1.0 | 2.0 | 0.00 | 0.00 | 0.00 | 29 | 1014.2 |
| 20260503203553 | 64 | 6 | 1.0 | 3.0 | 0.00 | 0.00 | 0.00 | 28 | 1014.2 |
| 20260503203050 | 64 | 357 | 1.0 | 2.0 | 0.00 | 0.00 | 0.00 | 28 | 1014.3 |
| 20260503202548 | 65 | 340 | 1.0 | 3.0 | 0.00 | 0.00 | 0.00 | 28 | 1014.2 |
| 20260503202045 | 64 | 284 | 0.0 | 3.0 | 0.00 | 0.00 | 0.00 | 27 | 1014.4 |
| 20260503201543 | 64 | 346 | 2.0 | 2.0 | 0.00 | 0.00 | 0.00 | 30 | 1014.7 |
| 20260503201040 | 64 | 351 | 3.0 | 5.0 | 0.00 | 0.00 | 0.00 | 29 | 1014.7 |
| 20260503200536 | 64 | 131 | 1.0 | 3.0 | 0.00 | 0.00 | 0.00 | 30 | 1014.6 |
| 20260503200033 | 64 | 331 | 2.0 | 5.0 | 0.00 | 0.00 | 0.00 | 31 | 1014.7 |
| 20260503195530 | 64 | 297 | 1.0 | 5.0 | 0.00 | 0.00 | 0.00 | 29 | 1014.5 |
| 20260503195027 | 63 | 296 | 0.0 | 2.0 | 0.00 | 0.00 | 0.00 | 31 | 1014.9 |
| 20260503194525 | 63 | 198 | 5.0 | 8.0 | 0.00 | 0.00 | 0.00 | 30 | 1014.7 |
| 20260503194024 | 64 | 353 | 1.0 | 5.0 | 0.00 | 0.00 | 0.00 | 31 | 1015.0 |
| 20260503193521 | 63 | 195 | 1.0 | 7.0 | 0.00 | 0.00 | 0.00 | 30 | 1015.3 |
| 20260503193017 | 63 | 263 | 1.0 | 2.0 | 0.00 | 0.00 | 0.00 | 30 | 1015.2 |
| 20260503192513 | 63 | 243 | 2.0 | 6.0 | 0.00 | 0.00 | 0.00 | 30 | 1015.4 |
| 20260503192008 | 62 | 243 | 3.0 | 7.0 | 0.00 | 0.00 | 0.00 | 32 | 1015.4 |
| 20260503191506 | 63 | 318 | 2.0 | 5.0 | 0.00 | 0.00 | 0.00 | 32 | 1015.3 |
| 20260503191002 | 63 | 202 | 4.0 | 6.0 | 0.00 | 0.00 | 0.00 | 32 | 1015.5 |
| 20260503190459 | 62 | 195 | 6.0 | 9.0 | 0.00 | 0.00 | 0.00 | 33 | 1015.4 |
| 20260503185956 | 62 | 358 | 2.0 | 2.0 | 0.00 | 0.00 | 0.00 | 31 | 1015.6 |
| 20260503185452 | 61 | 6 | 2.0 | 5.0 | 0.00 | 0.00 | 0.00 | 30 | 1015.9 |
| 20260503184952 | 61 | 28 | 1.0 | 2.0 | 0.00 | 0.00 | 0.00 | 31 | 1015.9 |
| 20260503184449 | 62 | 3 | 4.0 | 7.0 | 0.00 | 0.00 | 0.00 | 30 | 1015.9 |
| 20260503183945 | 62 | 80 | 2.0 | 5.0 | 0.00 | 0.00 | 0.00 | 32 | 1015.6 |
| 20260503183442 | 62 | 1 | 1.0 | 2.0 | 0.00 | 0.00 | 0.00 | 35 | 1015.9 |
| 20260503182939 | 62 | 264 | 0.0 | 2.0 | 0.00 | 0.00 | 0.00 | 33 | 1016.0 |
| 20260503182438 | 62 | 311 | 2.0 | 3.0 | 0.00 | 0.00 | 0.00 | 36 | 1015.9 |
| 20260503181935 | 61 | 31 | 3.0 | 6.0 | 0.00 | 0.00 | 0.00 | 34 | 1016.0 |
| 20260503181432 | 61 | 352 | 3.0 | 5.0 | 0.00 | 0.00 | 0.00 | 34 | 1016.0 |
| 20260503180927 | 60 | 334 | 3.0 | 6.0 | 0.00 | 0.00 | 0.00 | 34 | 1016.2 |
| 20260503180427 | 61 | 26 | 2.0 | 6.0 | 0.00 | 0.00 | 0.00 | 35 | 1016.1 |
| 20260503175923 | 62 | 40 | 1.0 | 5.0 | 0.00 | 0.00 | 0.00 | 34 | 1016.0 |
| 20260503175421 | 61 | 9 | 1.0 | 3.0 | 0.00 | 0.00 | 0.00 | 35 | 1016.0 |
| 20260503174916 | 61 | 350 | 3.0 | 3.0 | 0.00 | 0.00 | 0.00 | 33 | 1016.3 |
| 20260503174415 | 61 | 358 | 1.0 | 6.0 | 0.00 | 0.00 | 0.00 | 38 | 1016.2 |
| 20260503173909 | 59 | 145 | 1.0 | 7.0 | 0.00 | 0.00 | 0.00 | 36 | 1016.4 |
| 20260503173405 | 59 | 197 | 1.0 | 3.0 | 0.00 | 0.00 | 0.00 | 33 | 1016.1 |
| 20260503172902 | 60 | 6 | 4.0 | 6.0 | 0.00 | 0.00 | 0.00 | 34 | 1016.3 |
| 20260503172400 | 59 | 238 | 0.0 | 3.0 | 0.00 | 0.00 | 0.00 | 36 | 1016.4 |
| 20260503171855 | 59 | 356 | 1.0 | 3.0 | 0.00 | 0.00 | 0.00 | 35 | 1016.4 |
| 20260503171353 | 58 | 239 | 3.0 | 5.0 | 0.00 | 0.00 | 0.00 | 36 | 1016.7 |
| 20260503170850 | 57 | 167 | 2.0 | 3.0 | 0.00 | 0.00 | 0.00 | 36 | 1016.5 |
| 20260503170346 | 58 | 285 | 0.0 | 3.0 | 0.00 | 0.00 | 0.00 | 36 | 1016.6 |